Flag for Japan Weather past 2 weeks in Utsunomiya, Japan

Now
69 °F

Mild.


Feels Like: 69 °F
Forecast: 51 / 71 °F
Wind: 6 mph from Northeast

Location: Mito

Current Time: Sep 20, 2014 at 11:49:46 AM

Latest Report: Sep 20, 2014 at 11:00 AM


Visibility: N/A

Pressure: 29.96 "Hg

Humidity: 57%

Dew point: 54 °F

Location of UtsunomiyaLocation

Historic Weather in Utsunomiya — Graph

°F

Utsunomiya temperature yesterday

Maximum temperature yesterday: 75 °F (at 2:00 PM)
Minimum temperature yesterday: 52 °F (at 5:00 AM)
Average temperature yesterday: 66 °F

Past Weeks' High & Low Weather Summary

 TemperatureHumidityPressure
High83 °F (Sep 5, 2:00 PM)98% (Sep 6, 1:00 AM)30.01 "Hg (Sep 6, 1:00 AM)
Low52 °F (Sep 19, 5:00 AM)39% (Sep 19, 11:00 AM)29.65 "Hg (Sep 9, 3:00 PM)
Average70 °F79%29.86 "Hg
* Reported Sep 5 10:00 AM — Sep 20 10:00 AM, Utsunomiya, Weather by CustomWeather, © 2014

Note: Actual official high and low records may vary slightly from our data, if they occured in-between our weather recording intervals... More about our weather records

Advertising

Utsunomiya weather history for previous 24 hours

 ConditionsComfort  
Time TempWeatherWind HumidityBarometerVisibility
10:00 AM
Sep 20
67 °FMild.3 mph67%29.98 "HgN/A
9:00 AM66 °FOvercast.5 mph69%29.98 "Hg19 mi
8:00 AM63 °FMild.5 mph79%29.97 "HgN/A
7:00 AM62 °FCool.3 mph79%29.96 "HgN/A
6:00 AM60 °FCool.2 mph82%29.94 "HgN/A
5:00 AM60 °FCool.3 mph79%29.92 "HgN/A
4:00 AM59 °FCool.3 mph88%29.90 "HgN/A
3:00 AM59 °FOvercast.2 mph90%29.90 "Hg12 mi
2:00 AM61 °FCool.2 mph86%29.90 "HgN/A
1:00 AM61 °FCool.2 mph85%29.92 "HgN/A
12:00 AM61 °FCool.2 mph87%29.93 "HgN/A
11:00 PM
Sep 19
62 °FMild.3 mph84%29.93 "HgN/A
10:00 PM63 °FMild.3 mph85%29.92 "HgN/A
9:00 PM65 °FOvercast.3 mph74%29.92 "Hg12 mi
8:00 PM68 °FMild.2 mph73%29.92 "HgN/A
7:00 PM70 °FMild.2 mph62%29.90 "HgN/A
6:00 PM70 °FMild.5 mph63%29.89 "HgN/A
5:00 PM72 °FMild.5 mph45%29.88 "HgN/A
4:00 PM75 °FMild.5 mph44%29.87 "HgN/A
3:00 PM75 °FOvercast.6 mph46%29.87 "Hg19 mi
2:00 PM75 °FMild.5 mph47%29.87 "HgN/A
1:00 PM75 °FMild.6 mph49%29.88 "HgN/A
12:00 PM74 °FMild.5 mph40%29.90 "HgN/A
11:00 AM73 °FMild.3 mph39%29.92 "HgN/A
Weather by CustomWeather, © 2014

See weather overviewHow to use our weather pages